{"data":{"norad_id":57496,"intl_designator":"2023-113B","name":"STARLINK-30145","alt_names":[],"object_type":"PAYLOAD","status":"ACTIVE","operator":null,"country":"US","launch_date":"2023-08-07","launch_site_code":"AFETR","launch_vehicle":null,"mission":null,"orbit_class":"UNKNOWN","rcs_meters":null,"size_class":null,"mass_kg":null,"dimensions":null,"purposes":["comms"],"wikipedia_slug":null,"has_3d_model":false,"image_url":null,"decayed_at":null,"tle_current":{"epoch":"2026-09-20T22:00:03.000096Z","epoch_age_seconds":91682,"freshness":"FRESH","line1":"1 57496U 23113B   26263.91670139 -.00023923  00000+0 -86223-3 0  9990","line2":"2 57496  43.0031 353.5506 0001739 266.9687  49.8053 15.27593303  5850","mean_motion":15.27593303,"eccentricity":0.0001739,"inclination_deg":43.0031,"raan_deg":353.5506,"arg_perigee_deg":266.9687,"mean_anomaly_deg":49.8053,"bstar":-0.00086223,"rev_number":585,"period_min":94.265927794526,"perigee_km":481.81610902598,"apogee_km":484.20241569603,"semimajor_km":6861.146262361,"source":"CELESTRAK","updated_at":"2026-09-21T09:00:33.632203Z"}}}